Погода Рудная Пристань

Погода Рудная Пристань : погода сейчас, прогноз погоды и архив. Всё, что Вы хотите узнать о погоде Рудная Пристань!

Хотите узнать прогноз погоды Рудная Пристань? Тогда Вам сюда: Погода Рудная Пристань

Поиск расширенной информации на нашем сайте:

Другие новости

Новости СМИ2

Главная страница сайта

Новости сайта

02.10.2013

Напоминаем, что на нашем новом сайте вы можете получить высокодетализированные прогнозы погоды по пунктам России, СНГ и мира (включающие важные для авиации метеовеличины, такие как направление и скорость ветра, видимость, явления погоды, количество и форма облачности, нижняя и верхняя граница облачности), а также ознакомиться с разнообразными материалами по авиационной метеорологии и подборкой полезных ссылок на эту тему.

Сайт Метеоцентр.Азия посвящён разработке технологий оптимизации авиаметеорологического обслуживания, включая проектирование и перспективное создание нескольких автоматизированных авиаметеорологических систем:
- система выпуска высокодетальных прогностических карт явлений погоды для нижнего воздушного пространства по России и ближнему зарубежью;
- система верификации прогнозов TAF (выпускаемых синоптиками официальных АМСГ РФ и ближнего зарубежья) и AUTOTAF (выпускаемых сайтом Метеоцентр.Азия) - выявление ошибок, онлайн-сопоставление с фактической погодой METAR, автоматическое внесение коррективов в прогнозы при резком отклонении фактической погоды от прогноза, подсчёт оправдываемости прогнозов по элементам и в целом;
- система обработки, анализа и отображения авиаметеорологической информации для применения провайдерами метеорологической информации.

Рекомендуем: Нетбук в СВАО ремонт компьютеров компьютерная помощь одинцово VIP сервис

Погода Рудная Пристань - сегодня

Время (UTC), дата Ветер
(°,м/с) 
Видим.   Явления Облачность Т
(°С)
Тd
(°С)
f(%) Тe
(°С)
Pmin
(гПа)
dP
(гПа)
Po
(мм)
O2
(г/м3)
Тmin Tmax R s Состояние
почвы
15 26.03.17 300 (СЗ) 20000 м    6/6 600 м кучево-дожд. 
[Cb cap]
-0.3 -3 82 -1  1017.6  -0.7  760  307           
18 26.03.17 270 (З) 20000 м    6/6 600 м кучево-дожд. 
[Cb cap]
-2.5 -4.9 84 -4  1016.7  -0.9  759  309           
21 26.03.17 300 (СЗ) 20000 м    6/3 600 м кучево-дожд., верхняя 
[Cb cap|Ci sp]
+0.5 -4.7 68 1016.4  -0.3  759  306  -4.3         
00 27.03.17 270 (З) 20000 м    3/3 600 м средняя 
[Sc|Ac trans]
+5.2 -5 48 +3  1016.4  0.1  759  301           
03 27.03.17 260 (З) 3{12}  20000 м    9/8 600 м кучево-дожд., верхняя 
[Cb cap|Ci sp]
+7.1 -9.7 29 +6  1015.3  -1  758  299           
06 27.03.17 080 (В) 2{10}  20000 м    9/8 600 м кучево-дожд., верхняя 
[Cb cap|Ci sp]
+4.1 -4.3 54 +4  1014.1  -1.2  757  301           
09 27.03.17 тихо ()   20000 м    9/6 600 м кучево-дожд., средняя, верхняя 
[Cb cap|Ac trans|Ci sp]
+3.8 -3.7 58 +4  1014.7  0.6  758  302    +8.6       
12 27.03.17 270 (З) 20000 м    4/3 600 м 
[Sc diur, vesp]
+2.3 -8.7 44 +3  1015.6  0.8  758  304           
15 27.03.17 280 (З) 20000 м    3/0 средняя 
[Ac lent]
-2.2 -8 64 -2  1015.4  -0.2  758  309           
18 27.03.17 270 (З) 20000 м    ясно 
-3.6 -8.1 71 -5  1015.4  -0.1  758  310           
21 27.03.17 270 (З) 20000 м    3/3 600 м 
[Sc]
-5 -8.7 75 -6  1015.8  0.4  759  312  -4.5         
00 28.03.17 280 (З) 20000 м    1/1 600 м 
[Sc]
+5.7 -8.9 34 +5  1015.7  -0.1  759  300  -5.2         
03 28.03.17 250 (З) 2{10}  20000 м    9/8 600 м кучево-дожд., верхняя 
[Cb cap|Ci sp]
+8.8 -13.2 20 +9  1014.3  -1.3  758  297           
06 28.03.17 090 (В) 3{10}  20000 м    8/6 600 м кучево-дожд., верхняя 
[Cb cap|Ci sp]
+6.4 -7.6 36 +5  1013.3  -1  757  299           
09 28.03.17 100 (В) 20000 м    3/3 600 м кучево-дожд. 
[Cb cap]
+3.5 -4.6 55 +3  1014.2  0.8  758  302    +10.1       
12 28.03.17 270 (З) 20000 м    ясно 
+2 -9.5 42 +3  1015.7  1.4  759  304           
15 28.03.17 290 (З) 20000 м    3/0 средняя 
[Ac lent]
-1.8 -9.1 57 -3  1015.8  0.1  759  309           
18 28.03.17 280 (З) 20000 м    ясно 
-1.1 -8.8 56 -2  1015.4  -0.4  758  308           
21 28.03.17 250 (З) 20000 м    6/3 600 м средняя, верхняя 
[Sc|Ac lent|Ci sp]
-4.3 -8.6 72 -7  1015.7  0.2  758  311  -4.6         
00 29.03.17 240 (ЮЗ) 20000 м    10/3 600 м кучево-дожд., верхняя 
[Cb cap|Cs]
+2.6 -5.1 57 +2  1016.2  0.7  759  304  -4.9         
03 29.03.17 090 (В) 20000 м    10/4 600 м кучево-дожд., верхняя 
[Cb cap|Cs]
+3.2 -2.6 66 +3  1015.7  -0.5  759  302           
06 29.03.17 100 (В) 20000 м    10/6 600 м кучево-дожд., верхняя 
[Cb cap|Cs]
+5.4 -5 47 +5  1014.7  -0.9  758  300           
09 29.03.17 050 (СВ) 20000 м    10/8 600 м кучево-дожд., верхняя 
[Cb cap|Ci sp]
+2.7 -3.6 63 +3  1015.9  1.1  759  303    +5.8       
12 29.03.17 060 (СВ) 20000 м    8/8 600 м кучево-дожд. 
[Cb cap]
+0.7 -3.3 75 +1  1017.2  1.3  760  306           
15 29.03.17 270 (З) 20000 м    8/8 600 м кучево-дожд. 
[Cb cap]
+0 -1.3 91 +1  1017.4  0.2  760  306           
Время (UTC), дата Ветер
(°,м/с) 
Видим.   Явления Облачность Т
(°С)
Тd
(°С)
f(%) Тe
(°С)
Pmin
(гПа)
dP
(гПа)
Po
(мм)
O2
(г/м3)
Тmin Tmax R s Состояние
почвы

Для получения пояснительной информации подведите курсор к названию столбца.

ПОГОДА Рудная Пристань - архив

Всё, что Вы хотите узнать о погоде Рудная Пристань - удобно и подробно!

Выберите нужную дату (начиная с 1 января 2015* года) и нажмите кнопку "Найти".
Будут отображены архивные сводки погоды по пункту Рудная Пристань, начиная с указанной даты.


Отображать данные в формате CSV (для использования в таблицах Excel)


Внимание! Наш архив погоды предназначен исключительно для личного некоммерческого использования в познавательных целях. Если Вам необходимы официальные справки о состоянии погоды (для производственных, юридических, коммерческих и т.п. целей), обращайтесь в органы Росгидромета.

*Примечание: данная дата относится к архиву по метеостанциям СССР (Россия, СНГ, Балтия).
Архив по метеостанциям Зарубежной Европы и Азии (кроме Китая) хранится 10 дней, по другим регионам земного шара (Китай, Африка, Америка, Австралия, Океания) - 1 день.

Рудная Пристань - район местоположения метеостанции


Название, широта, долгота, высота метеостанции:
Рудная Пристань 44.4°ш. 135.9°д. 34 м над ур. моря [Российская Федерация]

Дополнительная информация

В oтличие oт бoльшинства пoгoдных сайтoв мы публикуем пoдрoбную метеoинфoрмацию в детальнoм прoфессиoнальнoм фoрмате.

Характеристики температуры и влажнoсти вoздуха измеряются на высoте 2 м в тени вдали oт зданий и деревьев.
Скoрoсть ветра измеряется на высoте 10 м (на урoвне рoста челoвека скoрoсть ветра ниже в 1.5-2 раза). Если метеoстанция нахoдится в гoрoде или в лесу, тo скoрoсть ветра занижена на 2-4 м/с пo сравнению с oткрытым местoм. Скoрoсть ветра над акватoриями крупных рек и oзёр, а также на вершинах хoлмoв на 2-5 м/с выше, чем в oбычных услoвиях.
Атмoсфернoе давление в разных тoчках местнoсти мoжет значительнo oтличаться oт давления на метеoстанции, в зависимoсти oт услoвий рельефа (при пoдъёме на 10 м давление пoнижается примернo на 1 мм рт.ст.).